This is the latest recevied weather packets stored in our database for station/object BARLOW-WX. If no packets are shown the sender has not sent any weather packets the latest 10 day(s).
| Time | Temp. | Humidity | Pressure | Rain* | Wind** | Luminosity | Snow |
|---|---|---|---|---|---|---|---|
| 1787436080 | 22.78° C | 61% | 985 hPa | 0 mm | - | - | - |
| 1787435178 | 22.78° C | 62% | 985.6 hPa | 0 mm | - | - | - |
| 1787434279 | 22.78° C | 60% | 984.9 hPa | 0 mm | - | - | - |
| 1787433379 | 22.78° C | 60% | 984.9 hPa | 0 mm | - | - | - |
| 1787432480 | 23.33° C | 60% | 984.9 hPa | 0 mm | - | - | - |
| 1787431579 | 23.33° C | 60% | 984.6 hPa | 0 mm | - | - | - |
| 1787430679 | 23.33° C | 55% | 984.4 hPa | 0 mm | - | - | - |
| 1787429780 | 23.89° C | 55% | 984.3 hPa | 0 mm | - | - | - |
| 1787428880 | 23.89° C | 55% | 984.3 hPa | 0 mm | - | - | - |
| 1787427980 | 23.89° C | 57% | 984.1 hPa | 0 mm | - | - | - |
| 1787427079 | 24.44° C | 57% | 984.1 hPa | 0 mm | - | - | - |
| 1787426179 | 24.44° C | 57% | 984.1 hPa | 0 mm | - | - | - |
| 1787425280 | 24.44° C | 57% | 984.1 hPa | 0 mm | - | - | - |
| 1787424379 | 24.44° C | 66% | 985 hPa | 0 mm | - | - | - |
| 1787423479 | 23.89° C | 66% | 985 hPa | 0 mm | - | - | - |
| 1787422580 | 22.78° C | 66% | 985 hPa | 0 mm | - | - | - |
| 1787421690 | 23.89° C | 66% | 985 hPa | 0 mm | - | - | - |
| 1787420779 | 22.78° C | 75% | 984.3 hPa | 0 mm | - | - | - |
| 1787419879 | 23.33° C | 91% | 984.4 hPa | 7.11 mm | - | - | - |
| 1787418978 | 21.11° C | 91% | 984.4 hPa | 7.11 mm | - | - | - |
| 1787418083 | 21.11° C | 91% | 984.4 hPa | 7.11 mm | - | - | - |
| 1787417179 | 20.56° C | 95% | 984 hPa | 13.97 mm | - | - | - |
| 1787416279 | 22.78° C | 83% | 983.7 hPa | 0 mm | - | - | - |
| 1787415378 | 22.78° C | 83% | 983.7 hPa | 0 mm | - | - | - |
| 1787414480 | 21.67° C | 83% | 983.7 hPa | 0 mm | - | - | - |
* Rain latest hour (hover to see other rain measurements)
** Current wind speed in m/s (hover to see current wind gust speed)